Time,TemperatureF,DewpointF,PressureIn,WindDirection,WindDirectionDegrees,WindSpeedMPH,WindSpeedGustMPH,Humidity,HourlyPrecipIn,Conditions,Clouds,dailyrainin,SoftwareType,DateUTC
2013-04-20 00:01:00,45.7,33.8,29.87,North,352,1.0,11.0,63,0.00,,,0.13,meteohub,2013-04-20 04:01:00,
2013-04-20 00:02:00,45.5,34.0,29.87,West,272,1.0,11.0,64,0.00,,,0.13,meteohub,2013-04-20 04:02:00,
2013-04-20 00:03:00,45.3,33.8,29.88,WNW,294,2.0,11.0,64,0.00,,,0.13,meteohub,2013-04-20 04:03:00,
2013-04-20 00:09:00,45.0,34.0,29.88,West,271,0.0,11.0,65,0.00,,,0.00,meteohub,2013-04-20 04:09:00,
2013-04-20 00:14:00,44.4,33.8,29.88,WNW,293,1.0,11.0,66,0.00,,,0.00,meteohub,2013-04-20 04:14:00,
2013-04-20 00:19:00,44.4,34.2,29.88,WNW,303,0.0,14.0,67,0.00,,,0.00,meteohub,2013-04-20 04:19:00,
2013-04-20 00:24:00,44.2,34.0,29.88,WNW,283,0.0,14.0,67,0.00,,,0.00,meteohub,2013-04-20 04:24:00,
2013-04-20 00:29:00,44.1,34.5,29.89,WNW,284,0.0,14.0,69,0.00,,,0.00,meteohub,2013-04-20 04:29:00,
2013-04-20 00:35:00,43.9,34.3,29.89,SSE,150,1.0,10.0,69,0.00,,,0.00,meteohub,2013-04-20 04:35:00,
2013-04-20 00:40:00,43.9,34.3,29.89,WSW,240,0.0,10.0,69,0.00,,,0.00,meteohub,2013-04-20 04:40:00,
2013-04-20 00:45:00,44.1,33.4,29.89,SW,225,2.0,2.0,66,0.00,,,0.00,meteohub,2013-04-20 04:45:00,
2013-04-20 00:50:00,44.1,32.7,29.89,WNW,290,0.0,5.0,64,0.00,,,0.00,meteohub,2013-04-20 04:50:00,
2013-04-20 00:55:00,44.2,32.4,29.89,West,276,1.0,5.0,63,0.00,,,0.00,meteohub,2013-04-20 04:55:00,
2013-04-20 01:00:00,44.4,32.5,29.89,NW,312,0.0,9.0,63,0.00,,,0.00,meteohub,2013-04-20 05:00:00,
2013-04-20 01:05:00,44.2,32.4,29.89,West,270,5.0,9.0,63,0.00,,,0.00,meteohub,2013-04-20 05:05:00,
2013-04-20 01:10:00,44.2,32.9,29.90,WNW,297,1.0,13.0,64,0.00,,,0.00,meteohub,2013-04-20 05:10:00,
2013-04-20 01:15:00,44.1,32.7,29.90,WSW,242,10.0,13.0,64,0.00,,,0.00,meteohub,2013-04-20 05:15:00,
2013-04-20 01:20:00,43.7,33.4,29.91,West,274,7.0,13.0,67,0.00,,,0.00,meteohub,2013-04-20 05:20:00,
2013-04-20 01:25:00,43.2,34.0,29.91,North,356,0.0,12.0,70,0.00,,,0.00,meteohub,2013-04-20 05:25:00,
2013-04-20 01:30:00,42.6,33.4,29.91,NW,322,2.0,12.0,70,0.00,,,0.00,meteohub,2013-04-20 05:30:00,
2013-04-20 01:35:00,42.3,33.3,29.92,NW,317,2.0,16.0,70,0.00,,,0.00,meteohub,2013-04-20 05:35:00,
2013-04-20 01:40:00,41.7,33.1,29.92,West,261,4.0,16.0,71,0.00,,,0.00,meteohub,2013-04-20 05:40:00,
2013-04-20 01:46:00,41.5,33.3,29.92,WSW,238,2.0,16.0,72,0.00,,,0.00,meteohub,2013-04-20 05:46:00,
2013-04-20 01:51:00,41.2,33.4,29.93,WNW,292,4.0,10.0,74,0.00,,,0.00,meteohub,2013-04-20 05:51:00,
2013-04-20 01:56:00,41.2,33.8,29.93,WSW,250,4.0,9.0,75,0.00,,,0.00,meteohub,2013-04-20 05:56:00,
2013-04-20 02:01:00,41.2,33.8,29.93,WNW,283,3.0,9.0,75,0.00,,,0.00,meteohub,2013-04-20 06:01:00,
2013-04-20 02:06:00,41.2,33.4,29.94,SW,217,2.0,10.0,74,0.00,,,0.00,meteohub,2013-04-20 06:06:00,
2013-04-20 02:11:00,41.0,33.4,29.94,West,264,9.0,10.0,74,0.00,,,0.00,meteohub,2013-04-20 06:11:00,
2013-04-20 02:16:00,41.2,32.9,29.94,WNW,293,3.0,10.0,72,0.00,,,0.00,meteohub,2013-04-20 06:16:00,
2013-04-20 02:21:00,41.0,32.4,29.94,West,274,6.0,10.0,71,0.01,,,0.01,meteohub,2013-04-20 06:21:00,
2013-04-20 02:26:00,41.0,31.6,29.94,NW,305,0.0,13.0,69,0.01,,,0.01,meteohub,2013-04-20 06:26:00,
2013-04-20 02:31:00,41.0,31.6,29.94,West,278,6.0,13.0,69,0.01,,,0.01,meteohub,2013-04-20 06:31:00,
2013-04-20 02:36:00,41.0,30.9,29.94,WNW,288,4.0,13.0,67,0.01,,,0.01,meteohub,2013-04-20 06:36:00,
2013-04-20 02:41:00,40.8,31.1,29.95,ENE,63,1.0,9.0,68,0.01,,,0.01,meteohub,2013-04-20 06:41:00,
2013-04-20 02:46:00,40.8,30.7,29.95,West,260,4.0,12.0,67,0.01,,,0.01,meteohub,2013-04-20 06:46:00,
2013-04-20 02:52:00,40.6,30.6,29.95,WNW,283,6.0,15.0,67,0.01,,,0.01,meteohub,2013-04-20 06:52:00,
2013-04-20 02:57:00,40.6,30.2,29.96,WNW,287,3.0,15.0,66,0.01,,,0.01,meteohub,2013-04-20 06:57:00,
2013-04-20 03:02:00,40.6,30.2,29.96,SW,221,0.0,15.0,66,0.01,,,0.01,meteohub,2013-04-20 07:02:00,
2013-04-20 03:07:00,40.5,30.0,29.96,East,100,1.0,14.0,66,0.01,,,0.01,meteohub,2013-04-20 07:07:00,
2013-04-20 03:12:00,40.5,30.0,29.96,WNW,301,4.0,14.0,66,0.01,,,0.01,meteohub,2013-04-20 07:12:00,
2013-04-20 03:17:00,40.3,30.2,29.96,WNW,293,3.0,11.0,67,0.01,,,0.01,meteohub,2013-04-20 07:17:00,
2013-04-20 03:22:00,40.3,30.2,29.96,West,266,11.0,11.0,67,0.00,,,0.01,meteohub,2013-04-20 07:22:00,
2013-04-20 03:27:00,40.1,30.4,29.96,WNW,290,2.0,11.0,68,0.00,,,0.01,meteohub,2013-04-20 07:27:00,
2013-04-20 03:32:00,39.9,30.2,29.96,WNW,291,0.0,11.0,68,0.00,,,0.01,meteohub,2013-04-20 07:32:00,
2013-04-20 03:37:00,39.7,30.0,29.96,West,273,9.0,11.0,68,0.00,,,0.01,meteohub,2013-04-20 07:37:00,
2013-04-20 03:42:00,39.7,29.7,29.97,WNW,282,0.0,13.0,67,0.00,,,0.01,meteohub,2013-04-20 07:42:00,
2013-04-20 03:47:00,39.6,29.5,29.97,West,281,4.0,13.0,67,0.00,,,0.01,meteohub,2013-04-20 07:47:00,
2013-04-20 03:52:00,39.6,29.5,29.97,WSW,238,2.0,13.0,67,0.00,,,0.01,meteohub,2013-04-20 07:52:00,
2013-04-20 03:57:00,39.2,29.5,29.97,WSW,248,0.0,10.0,68,0.00,,,0.01,meteohub,2013-04-20 07:57:00,
2013-04-20 04:02:00,39.2,29.5,29.98,WNW,293,0.0,8.0,68,0.00,,,0.01,meteohub,2013-04-20 08:02:00,
2013-04-20 04:07:00,39.4,29.3,29.98,North,356,0.0,8.0,67,0.00,,,0.01,meteohub,2013-04-20 08:07:00,
2013-04-20 04:12:00,39.4,28.9,29.98,West,280,2.0,10.0,66,0.00,,,0.01,meteohub,2013-04-20 08:12:00,
2013-04-20 04:17:00,39.4,28.9,29.98,WNW,296,0.0,10.0,66,0.00,,,0.01,meteohub,2013-04-20 08:17:00,
2013-04-20 04:22:00,39.4,28.9,29.98,West,278,10.0,10.0,66,0.00,,,0.01,meteohub,2013-04-20 08:22:00,
2013-04-20 04:27:00,39.2,28.8,29.98,WSW,240,0.0,12.0,66,0.00,,,0.01,meteohub,2013-04-20 08:27:00,
2013-04-20 04:32:00,39.2,28.4,29.98,SSW,193,1.0,12.0,65,0.00,,,0.01,meteohub,2013-04-20 08:32:00,
2013-04-20 04:37:00,39.0,27.9,29.99,SSW,197,2.0,12.0,64,0.00,,,0.01,meteohub,2013-04-20 08:37:00,
2013-04-20 04:42:00,39.0,27.9,29.98,South,179,3.0,11.0,64,0.00,,,0.01,meteohub,2013-04-20 08:42:00,
2013-04-20 04:47:00,38.7,27.5,29.99,ESE,121,1.0,11.0,64,0.00,,,0.01,meteohub,2013-04-20 08:47:00,
2013-04-20 04:52:00,38.5,27.3,29.99,West,274,5.0,11.0,64,0.00,,,0.01,meteohub,2013-04-20 08:52:00,
2013-04-20 04:57:00,38.7,27.1,29.99,WSW,242,4.0,11.0,63,0.00,,,0.01,meteohub,2013-04-20 08:57:00,
2013-04-20 05:02:00,38.5,27.0,29.99,ENE,74,0.0,11.0,63,0.00,,,0.01,meteohub,2013-04-20 09:02:00,
2013-04-20 05:07:00,38.5,27.0,29.99,West,267,1.0,11.0,63,0.00,,,0.01,meteohub,2013-04-20 09:07:00,
2013-04-20 05:12:00,38.3,27.1,29.99,SSW,211,1.0,10.0,64,0.00,,,0.01,meteohub,2013-04-20 09:12:00,
2013-04-20 05:17:00,38.1,27.0,29.99,West,270,0.0,10.0,64,0.00,,,0.01,meteohub,2013-04-20 09:17:00,
2013-04-20 05:22:00,37.9,26.8,29.99,ESE,120,1.0,10.0,64,0.00,,,0.01,meteohub,2013-04-20 09:22:00,
2013-04-20 05:27:00,37.8,26.6,29.99,West,271,1.0,5.0,64,0.00,,,0.01,meteohub,2013-04-20 09:27:00,
2013-04-20 05:32:00,37.8,27.1,29.99,WSW,243,4.0,5.0,65,0.00,,,0.01,meteohub,2013-04-20 09:32:00,
2013-04-20 05:37:00,37.8,26.6,29.99,SSE,166,3.0,5.0,64,0.00,,,0.01,meteohub,2013-04-20 09:37:00,
2013-04-20 05:42:00,37.8,26.6,29.99,SE,141,1.0,5.0,64,0.00,,,0.01,meteohub,2013-04-20 09:42:00,
2013-04-20 05:47:00,37.8,26.6,29.99,SSW,205,3.0,5.0,64,0.00,,,0.01,meteohub,2013-04-20 09:47:00,
2013-04-20 05:52:00,37.6,26.6,29.99,NNW,335,4.0,6.0,64,0.00,,,0.01,meteohub,2013-04-20 09:52:00,
2013-04-20 05:57:00,37.6,27.0,29.99,SW,235,3.0,6.0,65,0.00,,,0.01,meteohub,2013-04-20 09:57:00,
2013-04-20 06:02:00,37.6,27.0,29.99,SSW,193,0.0,6.0,65,0.00,,,0.01,meteohub,2013-04-20 10:02:00,
2013-04-20 06:07:00,37.4,27.1,30.00,SSW,201,0.0,4.0,66,0.00,,,0.01,meteohub,2013-04-20 10:07:00,
2013-04-20 06:12:00,37.2,27.0,30.00,SW,219,1.0,4.0,66,0.00,,,0.01,meteohub,2013-04-20 10:12:00,
2013-04-20 06:17:00,37.2,27.0,30.00,SW,235,2.0,3.0,66,0.00,,,0.01,meteohub,2013-04-20 10:17:00,
2013-04-20 06:22:00,37.6,27.3,30.01,South,188,4.0,4.0,66,0.00,,,0.01,meteohub,2013-04-20 10:22:00,
2013-04-20 06:27:00,37.8,27.5,30.00,NNE,26,2.0,5.0,66,0.00,,,0.01,meteohub,2013-04-20 10:27:00,
2013-04-20 06:32:00,37.9,27.1,30.00,SSW,212,0.0,5.0,65,0.00,,,0.01,meteohub,2013-04-20 10:32:00,
2013-04-20 06:37:00,37.9,27.7,30.01,East,89,1.0,10.0,66,0.00,,,0.01,meteohub,2013-04-20 10:37:00,
2013-04-20 06:42:00,37.9,27.7,30.01,ESE,122,1.0,10.0,66,0.00,,,0.01,meteohub,2013-04-20 10:42:00,
2013-04-20 06:47:00,37.9,27.7,30.01,East,94,2.0,13.0,66,0.00,,,0.01,meteohub,2013-04-20 10:47:00,
2013-04-20 06:52:00,37.8,27.9,30.02,East,80,8.0,13.0,67,0.00,,,0.01,meteohub,2013-04-20 10:52:00,
2013-04-20 06:57:00,37.9,28.0,30.02,SW,231,7.0,13.0,67,0.00,,,0.01,meteohub,2013-04-20 10:57:00,
2013-04-20 07:02:00,38.1,27.9,30.02,SW,225,1.0,9.0,66,0.00,,,0.01,meteohub,2013-04-20 11:02:00,
2013-04-20 07:07:00,38.3,28.2,30.03,West,276,5.0,9.0,67,0.00,,,0.01,meteohub,2013-04-20 11:07:00,
2013-04-20 07:12:00,38.5,28.4,30.03,SE,134,2.0,9.0,67,0.00,,,0.01,meteohub,2013-04-20 11:12:00,
2013-04-20 07:17:00,38.3,27.9,30.03,West,278,7.0,8.0,66,0.00,,,0.01,meteohub,2013-04-20 11:17:00,
2013-04-20 07:22:00,38.5,28.0,30.03,WSW,238,0.0,8.0,66,0.00,,,0.01,meteohub,2013-04-20 11:22:00,
2013-04-20 07:27:00,38.5,28.0,30.03,West,275,3.0,10.0,66,0.00,,,0.01,meteohub,2013-04-20 11:27:00,
2013-04-20 07:32:00,38.5,28.0,30.04,WSW,240,3.0,10.0,66,0.00,,,0.01,meteohub,2013-04-20 11:32:00,
2013-04-20 07:37:00,38.7,28.2,30.04,SW,219,4.0,7.0,66,0.00,,,0.01,meteohub,2013-04-20 11:37:00,
2013-04-20 07:42:00,38.8,29.1,30.04,SSW,203,2.0,6.0,68,0.00,,,0.01,meteohub,2013-04-20 11:42:00,
2013-04-20 07:47:00,39.0,28.9,30.05,WSW,245,6.0,6.0,67,0.00,,,0.01,meteohub,2013-04-20 11:47:00,
2013-04-20 07:52:00,39.0,28.9,30.05,ESE,108,5.0,9.0,67,0.00,,,0.01,meteohub,2013-04-20 11:52:00,
2013-04-20 07:57:00,39.0,28.9,30.06,WSW,252,3.0,9.0,67,0.00,,,0.01,meteohub,2013-04-20 11:57:00,
2013-04-20 08:02:00,39.0,29.7,30.06,West,267,7.0,10.0,69,0.00,,,0.01,meteohub,2013-04-20 12:02:00,
2013-04-20 08:07:00,39.0,29.3,30.06,WNW,284,3.0,11.0,68,0.00,,,0.01,meteohub,2013-04-20 12:07:00,
2013-04-20 08:12:00,38.8,29.1,30.06,NW,318,0.0,11.0,68,0.00,,,0.01,meteohub,2013-04-20 12:12:00,
2013-04-20 08:17:00,39.0,29.7,30.06,NW,313,0.0,11.0,69,0.00,,,0.01,meteohub,2013-04-20 12:17:00,
2013-04-20 08:22:00,39.2,29.5,30.06,West,266,3.0,10.0,68,0.00,,,0.01,meteohub,2013-04-20 12:22:00,
2013-04-20 08:27:00,39.4,29.7,30.07,West,267,9.0,9.0,68,0.00,,,0.01,meteohub,2013-04-20 12:27:00,
2013-04-20 08:32:00,39.6,29.8,30.07,WNW,290,1.0,10.0,68,0.00,,,0.01,meteohub,2013-04-20 12:32:00,
2013-04-20 08:37:00,39.7,29.3,30.06,North,8,9.0,10.0,66,0.00,,,0.01,meteohub,2013-04-20 12:37:00,
2013-04-20 08:42:00,40.3,29.5,30.07,WNW,290,0.0,10.0,65,0.00,,,0.01,meteohub,2013-04-20 12:42:00,
2013-04-20 08:47:00,40.3,28.8,30.07,WSW,250,0.0,9.0,63,0.00,,,0.01,meteohub,2013-04-20 12:47:00,
2013-04-20 08:52:00,40.3,29.5,30.07,WSW,238,0.0,10.0,65,0.00,,,0.01,meteohub,2013-04-20 12:52:00,
2013-04-20 08:57:00,40.3,28.8,30.08,West,276,7.0,10.0,63,0.00,,,0.01,meteohub,2013-04-20 12:57:00,
2013-04-20 09:02:00,40.3,28.2,30.08,West,268,9.0,10.0,62,0.00,,,0.01,meteohub,2013-04-20 13:02:00,
2013-04-20 09:07:00,40.3,28.2,30.08,WSW,249,4.0,15.0,62,0.00,,,0.01,meteohub,2013-04-20 13:07:00,
2013-04-20 09:13:00,40.6,27.9,30.08,West,278,2.0,15.0,60,0.00,,,0.01,meteohub,2013-04-20 13:13:00,
2013-04-20 09:18:00,40.6,27.9,30.08,WNW,291,5.0,15.0,60,0.00,,,0.01,meteohub,2013-04-20 13:18:00,
2013-04-20 09:23:00,40.8,28.8,30.09,WNW,290,5.0,13.0,62,0.00,,,0.01,meteohub,2013-04-20 13:23:00,
2013-04-20 09:28:00,41.2,28.4,30.09,West,276,3.0,13.0,60,0.00,,,0.01,meteohub,2013-04-20 13:28:00,
2013-04-20 09:33:00,41.2,27.9,30.08,West,274,0.0,13.0,59,0.00,,,0.01,meteohub,2013-04-20 13:33:00,
2013-04-20 09:38:00,41.4,28.9,30.09,NW,307,1.0,13.0,61,0.00,,,0.01,meteohub,2013-04-20 13:38:00,
2013-04-20 09:43:00,41.4,28.0,30.09,West,272,6.0,11.0,59,0.00,,,0.01,meteohub,2013-04-20 13:43:00,
2013-04-20 09:48:00,41.5,28.2,30.09,West,267,1.0,14.0,59,0.00,,,0.01,meteohub,2013-04-20 13:48:00,
2013-04-20 09:53:00,41.5,27.9,30.10,WSW,250,2.0,14.0,58,0.00,,,0.01,meteohub,2013-04-20 13:53:00,
2013-04-20 09:58:00,41.4,28.0,30.10,SW,226,5.0,14.0,59,0.00,,,0.01,meteohub,2013-04-20 13:58:00,
2013-04-20 10:03:00,41.2,28.4,30.11,NW,309,4.0,14.0,60,0.00,,,0.01,meteohub,2013-04-20 14:03:00,
2013-04-20 10:08:00,41.4,28.9,30.11,NNW,333,0.0,14.0,61,0.00,,,0.01,meteohub,2013-04-20 14:08:00,
2013-04-20 10:14:00,41.4,28.0,30.12,West,269,14.0,14.0,59,0.00,,,0.01,meteohub,2013-04-20 14:14:00,
2013-04-20 10:19:00,41.4,28.9,30.12,NW,314,2.0,12.0,61,0.00,,,0.01,meteohub,2013-04-20 14:19:00,
2013-04-20 10:24:00,41.9,29.8,30.12,North,11,5.0,16.0,62,0.00,,,0.01,meteohub,2013-04-20 14:24:00,
2013-04-20 10:29:00,41.9,28.6,30.12,West,280,1.0,16.0,59,0.00,,,0.01,meteohub,2013-04-20 14:29:00,
2013-04-20 10:34:00,41.5,28.2,30.12,NW,304,0.0,12.0,59,0.00,,,0.01,meteohub,2013-04-20 14:34:00,
2013-04-20 10:39:00,41.4,29.3,30.13,NW,321,0.0,11.0,62,0.00,,,0.01,meteohub,2013-04-20 14:39:00,
2013-04-20 10:44:00,41.7,29.7,30.13,NW,308,0.0,11.0,62,0.00,,,0.01,meteohub,2013-04-20 14:44:00,
2013-04-20 10:49:00,42.4,29.5,30.13,West,276,4.0,11.0,60,0.00,,,0.01,meteohub,2013-04-20 14:49:00,
2013-04-20 10:54:00,42.4,30.0,30.13,NW,307,1.0,11.0,61,0.00,,,0.01,meteohub,2013-04-20 14:54:00,
2013-04-20 10:59:00,42.3,29.3,30.14,West,278,2.0,8.0,60,0.00,,,0.01,meteohub,2013-04-20 14:59:00,
2013-04-20 11:04:00,43.3,30.0,30.14,WNW,288,6.0,8.0,59,0.00,,,0.01,meteohub,2013-04-20 15:04:00,
2013-04-20 11:09:00,43.9,30.0,30.14,WSW,240,8.0,11.0,58,0.00,,,0.01,meteohub,2013-04-20 15:09:00,
2013-04-20 11:14:00,43.9,29.1,30.14,NW,322,0.0,12.0,56,0.00,,,0.01,meteohub,2013-04-20 15:14:00,
2013-04-20 11:20:00,43.5,28.9,30.14,WSW,248,6.0,12.0,56,0.00,,,0.01,meteohub,2013-04-20 15:20:00,
2013-04-20 11:25:00,43.3,28.2,30.15,West,263,7.0,16.0,55,0.00,,,0.01,meteohub,2013-04-20 15:25:00,
2013-04-20 11:30:00,43.7,28.2,30.14,West,266,4.0,16.0,54,0.00,,,0.01,meteohub,2013-04-20 15:30:00,
2013-04-20 11:35:00,43.5,27.5,30.15,WNW,301,0.0,16.0,53,0.00,,,0.01,meteohub,2013-04-20 15:35:00,
2013-04-20 11:40:00,44.1,28.4,30.15,NW,314,0.0,16.0,54,0.00,,,0.01,meteohub,2013-04-20 15:40:00,
2013-04-20 11:45:00,43.7,29.1,30.15,West,272,6.0,15.0,56,0.00,,,0.01,meteohub,2013-04-20 15:45:00,
2013-04-20 11:50:00,43.9,27.9,30.15,West,276,10.0,13.0,53,0.00,,,0.01,meteohub,2013-04-20 15:50:00,
2013-04-20 11:55:00,44.1,28.0,30.15,WSW,256,9.0,14.0,53,0.00,,,0.01,meteohub,2013-04-20 15:55:00,
2013-04-20 12:00:00,44.8,28.2,30.15,WNW,284,6.0,14.0,52,0.00,,,0.01,meteohub,2013-04-20 16:00:00,
2013-04-20 12:05:00,45.1,28.0,30.15,West,280,5.0,14.0,51,0.00,,,0.01,meteohub,2013-04-20 16:05:00,
2013-04-20 12:10:00,45.0,27.9,30.16,West,280,7.0,13.0,51,0.00,,,0.01,meteohub,2013-04-20 16:10:00,
2013-04-20 12:15:00,45.0,28.4,30.16,NW,311,2.0,13.0,52,0.00,,,0.01,meteohub,2013-04-20 16:15:00,
2013-04-20 12:20:00,45.9,29.3,30.15,WNW,287,2.0,12.0,52,0.00,,,0.01,meteohub,2013-04-20 16:20:00,
2013-04-20 12:26:00,46.6,29.5,30.15,WNW,284,0.0,12.0,51,0.00,,,0.01,meteohub,2013-04-20 16:26:00,
2013-04-20 12:31:00,46.6,28.4,30.16,WNW,302,0.0,12.0,49,0.00,,,0.01,meteohub,2013-04-20 16:31:00,
2013-04-20 12:36:00,46.0,28.4,30.15,West,273,0.0,12.0,50,0.00,,,0.01,meteohub,2013-04-20 16:36:00,
2013-04-20 12:41:00,46.6,28.9,30.15,WSW,248,4.0,10.0,50,0.00,,,0.01,meteohub,2013-04-20 16:41:00,
2013-04-20 12:46:00,47.5,29.3,30.14,SE,136,1.0,10.0,49,0.00,,,0.01,meteohub,2013-04-20 16:46:00,
2013-04-20 12:51:00,47.7,27.3,30.15,West,281,2.0,14.0,45,0.00,,,0.01,meteohub,2013-04-20 16:51:00,
2013-04-20 12:56:00,46.9,28.2,30.14,WSW,239,1.0,17.0,48,0.00,,,0.01,meteohub,2013-04-20 16:56:00,
2013-04-20 13:01:00,46.9,28.2,30.15,NW,313,2.0,17.0,48,0.00,,,0.01,meteohub,2013-04-20 17:01:00,
2013-04-20 13:06:00,46.6,27.9,30.14,NNW,342,0.0,17.0,48,0.00,,,0.01,meteohub,2013-04-20 17:06:00,
2013-04-20 13:12:00,46.6,27.5,30.15,West,281,1.0,11.0,47,0.00,,,0.01,meteohub,2013-04-20 17:12:00,
2013-04-20 13:17:00,46.6,27.0,30.15,WNW,285,4.0,9.0,46,0.00,,,0.01,meteohub,2013-04-20 17:17:00,
2013-04-20 13:22:00,46.4,26.8,30.15,WNW,300,2.0,8.0,46,0.00,,,0.01,meteohub,2013-04-20 17:22:00,
2013-04-20 13:27:00,46.4,27.3,30.15,WNW,294,1.0,8.0,47,0.00,,,0.01,meteohub,2013-04-20 17:27:00,
2013-04-20 13:32:00,46.8,27.7,30.15,WNW,283,5.0,9.0,47,0.00,,,0.01,meteohub,2013-04-20 17:32:00,
2013-04-20 13:37:00,47.1,26.2,30.15,WSW,250,7.0,9.0,44,0.00,,,0.01,meteohub,2013-04-20 17:37:00,
2013-04-20 13:42:00,47.5,27.1,30.15,WNW,295,6.0,14.0,45,0.00,,,0.01,meteohub,2013-04-20 17:42:00,
2013-04-20 13:47:00,47.5,26.6,30.15,ENE,70,2.0,14.0,44,0.00,,,0.01,meteohub,2013-04-20 17:47:00,
2013-04-20 13:52:00,47.7,27.3,30.15,WNW,290,0.0,14.0,45,0.00,,,0.01,meteohub,2013-04-20 17:52:00,
2013-04-20 13:57:00,48.9,31.1,30.15,North,5,1.0,10.0,50,0.00,,,0.01,meteohub,2013-04-20 17:57:00,
2013-04-20 14:02:00,48.4,26.4,30.16,WNW,302,2.0,13.0,42,0.00,,,0.01,meteohub,2013-04-20 18:02:00,
2013-04-20 14:07:00,48.0,27.7,30.16,NW,310,0.0,13.0,45,0.00,,,0.01,meteohub,2013-04-20 18:07:00,
2013-04-20 14:12:00,47.8,27.5,30.16,NW,307,1.0,14.0,45,0.00,,,0.01,meteohub,2013-04-20 18:12:00,
2013-04-20 14:17:00,48.0,27.7,30.16,WNW,302,2.0,14.0,45,0.00,,,0.01,meteohub,2013-04-20 18:17:00,
2013-04-20 14:22:00,48.6,25.9,30.17,West,273,5.0,14.0,41,0.00,,,0.01,meteohub,2013-04-20 18:22:00,
2013-04-20 14:27:00,49.3,27.7,30.16,WNW,287,10.0,14.0,43,0.00,,,0.01,meteohub,2013-04-20 18:27:00,
2013-04-20 14:32:00,49.6,26.2,30.16,NW,314,1.0,14.0,40,0.00,,,0.01,meteohub,2013-04-20 18:32:00,
2013-04-20 14:37:00,50.2,27.3,30.17,WNW,295,1.0,14.0,41,0.00,,,0.01,meteohub,2013-04-20 18:37:00,
2013-04-20 14:42:00,49.5,26.1,30.17,WNW,288,2.0,10.0,40,0.00,,,0.01,meteohub,2013-04-20 18:42:00,
2013-04-20 14:47:00,49.6,27.0,30.17,NNW,330,2.0,12.0,41,0.00,,,0.01,meteohub,2013-04-20 18:47:00,
2013-04-20 14:52:00,49.5,25.0,30.17,NNW,333,1.0,12.0,38,0.00,,,0.01,meteohub,2013-04-20 18:52:00,
2013-04-20 14:57:00,49.3,25.3,30.17,West,281,5.0,12.0,39,0.00,,,0.01,meteohub,2013-04-20 18:57:00,
2013-04-20 15:02:00,49.6,27.0,30.17,WNW,284,8.0,11.0,41,0.00,,,0.01,meteohub,2013-04-20 19:02:00,
2013-04-20 15:07:00,50.4,26.4,30.17,WSW,237,6.0,15.0,39,0.00,,,0.01,meteohub,2013-04-20 19:07:00,
2013-04-20 15:12:00,50.2,26.2,30.17,SSW,208,4.0,15.0,39,0.00,,,0.01,meteohub,2013-04-20 19:12:00,
2013-04-20 15:17:00,50.5,25.9,30.17,West,274,2.0,15.0,38,0.00,,,0.01,meteohub,2013-04-20 19:17:00,
2013-04-20 15:22:00,50.5,25.9,30.17,WSW,250,1.0,15.0,38,0.00,,,0.01,meteohub,2013-04-20 19:22:00,
2013-04-20 15:27:00,51.1,25.7,30.17,WNW,288,4.0,14.0,37,0.00,,,0.01,meteohub,2013-04-20 19:27:00,
2013-04-20 15:32:00,50.9,26.2,30.17,WSW,246,0.0,14.0,38,0.00,,,0.01,meteohub,2013-04-20 19:32:00,
2013-04-20 15:37:00,50.7,24.8,30.18,WNW,301,7.0,14.0,36,0.00,,,0.01,meteohub,2013-04-20 19:37:00,
2013-04-20 15:42:00,49.6,24.4,30.18,NE,46,1.0,14.0,37,0.00,,,0.01,meteohub,2013-04-20 19:42:00,
2013-04-20 15:47:00,50.2,26.2,30.18,WNW,291,4.0,13.0,39,0.00,,,0.01,meteohub,2013-04-20 19:47:00,
2013-04-20 15:52:00,50.7,23.4,30.18,West,278,8.0,13.0,34,0.00,,,0.01,meteohub,2013-04-20 19:52:00,
2013-04-20 15:57:00,50.4,24.4,30.18,SW,227,0.0,12.0,36,0.00,,,0.01,meteohub,2013-04-20 19:57:00,
2013-04-20 16:02:00,50.7,24.8,30.18,WNW,282,2.0,12.0,36,0.00,,,0.01,meteohub,2013-04-20 20:02:00,
2013-04-20 16:07:00,50.0,23.4,30.19,WNW,303,3.0,19.0,35,0.00,,,0.01,meteohub,2013-04-20 20:07:00,
2013-04-20 16:12:00,49.5,23.0,30.19,West,278,5.0,19.0,35,0.00,,,0.01,meteohub,2013-04-20 20:12:00,
2013-04-20 16:17:00,49.8,23.9,30.19,West,280,5.0,19.0,36,0.00,,,0.01,meteohub,2013-04-20 20:17:00,
2013-04-20 16:22:00,50.5,24.6,30.19,NW,316,1.0,13.0,36,0.00,,,0.01,meteohub,2013-04-20 20:22:00,
2013-04-20 16:27:00,50.4,24.4,30.19,WNW,293,10.0,13.0,36,0.00,,,0.01,meteohub,2013-04-20 20:27:00,
2013-04-20 16:32:00,50.5,25.2,30.19,WSW,242,1.0,13.0,37,0.00,,,0.01,meteohub,2013-04-20 20:32:00,
2013-04-20 16:37:00,50.2,24.3,30.19,WNW,290,0.0,13.0,36,0.00,,,0.01,meteohub,2013-04-20 20:37:00,
2013-04-20 16:42:00,51.1,27.0,30.20,WSW,239,0.0,13.0,39,0.00,,,0.01,meteohub,2013-04-20 20:42:00,
2013-04-20 16:47:00,51.4,26.1,30.20,NNW,329,1.0,6.0,37,0.00,,,0.01,meteohub,2013-04-20 20:47:00,
2013-04-20 16:52:00,51.1,24.4,30.20,NW,325,3.0,11.0,35,0.00,,,0.01,meteohub,2013-04-20 20:52:00,
2013-04-20 16:57:00,51.4,26.1,30.20,West,267,3.0,11.0,37,0.00,,,0.01,meteohub,2013-04-20 20:57:00,
2013-04-20 17:02:00,50.7,24.1,30.21,WNW,290,2.0,13.0,35,0.00,,,0.01,meteohub,2013-04-20 21:02:00,
2013-04-20 17:07:00,50.2,25.0,30.21,WNW,288,0.0,13.0,37,0.00,,,0.01,meteohub,2013-04-20 21:07:00,
2013-04-20 17:12:00,50.7,24.1,30.21,North,357,5.0,9.0,35,0.00,,,0.01,meteohub,2013-04-20 21:12:00,
2013-04-20 17:17:00,51.1,25.7,30.21,North,353,0.0,10.0,37,0.00,,,0.01,meteohub,2013-04-20 21:17:00,
2013-04-20 17:22:00,50.9,26.8,30.22,WNW,285,6.0,10.0,39,0.00,,,0.01,meteohub,2013-04-20 21:22:00,
2013-04-20 17:27:00,50.4,25.7,30.22,North,6,4.0,9.0,38,0.00,,,0.01,meteohub,2013-04-20 21:27:00,
2013-04-20 17:32:00,50.9,26.2,30.22,West,281,0.0,9.0,38,0.00,,,0.01,meteohub,2013-04-20 21:32:00,
2013-04-20 17:37:00,50.5,25.2,30.22,WNW,291,1.0,11.0,37,0.00,,,0.01,meteohub,2013-04-20 21:37:00,
2013-04-20 17:42:00,50.7,25.3,30.22,West,271,1.0,13.0,37,0.00,,,0.01,meteohub,2013-04-20 21:42:00,
2013-04-20 17:47:00,50.4,25.0,30.23,West,276,10.0,13.0,37,0.00,,,0.01,meteohub,2013-04-20 21:47:00,
2013-04-20 17:52:00,50.2,25.5,30.23,West,269,2.0,14.0,38,0.00,,,0.01,meteohub,2013-04-20 21:52:00,
2013-04-20 17:57:00,50.5,25.9,30.24,WSW,255,2.0,14.0,38,0.00,,,0.01,meteohub,2013-04-20 21:57:00,
2013-04-20 18:02:00,50.5,25.2,30.24,NW,321,2.0,10.0,37,0.00,,,0.01,meteohub,2013-04-20 22:02:00,
2013-04-20 18:07:00,50.7,26.1,30.24,NW,315,0.0,8.0,38,0.00,,,0.01,meteohub,2013-04-20 22:07:00,
2013-04-20 18:12:00,50.5,24.6,30.25,ENE,59,0.0,8.0,36,0.00,,,0.01,meteohub,2013-04-20 22:12:00,
2013-04-20 18:17:00,50.2,26.2,30.25,WNW,301,3.0,9.0,39,0.00,,,0.01,meteohub,2013-04-20 22:17:00,
2013-04-20 18:22:00,50.4,25.0,30.25,NW,315,3.0,9.0,37,0.00,,,0.01,meteohub,2013-04-20 22:22:00,
2013-04-20 18:27:00,50.0,23.4,30.26,WNW,291,7.0,8.0,35,0.00,,,0.01,meteohub,2013-04-20 22:27:00,
2013-04-20 18:32:00,49.3,24.8,30.26,West,260,0.0,10.0,38,0.00,,,0.01,meteohub,2013-04-20 22:32:00,
2013-04-20 18:37:00,48.7,24.8,30.26,WSW,255,0.0,10.0,39,0.00,,,0.01,meteohub,2013-04-20 22:37:00,
2013-04-20 18:42:00,48.9,24.4,30.26,WNW,295,6.0,10.0,38,0.00,,,0.01,meteohub,2013-04-20 22:42:00,
2013-04-20 18:47:00,48.7,25.5,30.27,WNW,283,3.0,7.0,40,0.00,,,0.01,meteohub,2013-04-20 22:47:00,
2013-04-20 18:52:00,48.6,24.1,30.27,WNW,283,3.0,7.0,38,0.00,,,0.01,meteohub,2013-04-20 22:52:00,
2013-04-20 18:57:00,48.6,25.3,30.27,WNW,290,0.0,7.0,40,0.00,,,0.01,meteohub,2013-04-20 22:57:00,
2013-04-20 19:02:00,48.4,24.6,30.27,East,101,1.0,7.0,39,0.00,,,0.01,meteohub,2013-04-20 23:02:00,
2013-04-20 19:07:00,47.8,24.6,30.27,WNW,283,1.0,5.0,40,0.00,,,0.01,meteohub,2013-04-20 23:07:00,
2013-04-20 19:12:00,47.7,25.2,30.27,NNW,327,3.0,5.0,41,0.00,,,0.01,meteohub,2013-04-20 23:12:00,
2013-04-20 19:17:00,46.8,23.7,30.27,WNW,297,4.0,7.0,40,0.00,,,0.01,meteohub,2013-04-20 23:17:00,
2013-04-20 19:22:00,46.6,24.1,30.28,NW,319,1.0,7.0,41,0.00,,,0.01,meteohub,2013-04-20 23:22:00,
2013-04-20 19:27:00,46.9,25.5,30.28,North,4,0.0,7.0,43,0.00,,,0.01,meteohub,2013-04-20 23:27:00,
2013-04-20 19:32:00,46.6,24.8,30.29,NW,309,0.0,7.0,42,0.00,,,0.01,meteohub,2013-04-20 23:32:00,
2013-04-20 19:37:00,46.2,24.4,30.29,North,5,3.0,7.0,42,0.00,,,0.01,meteohub,2013-04-20 23:37:00,
2013-04-20 19:42:00,46.0,24.3,30.29,WNW,293,0.0,5.0,42,0.00,,,0.01,meteohub,2013-04-20 23:42:00,
2013-04-20 19:47:00,45.7,25.5,30.29,WNW,287,0.0,6.0,45,0.00,,,0.01,meteohub,2013-04-20 23:47:00,
2013-04-20 19:52:00,45.0,24.4,30.30,West,277,0.0,6.0,44,0.00,,,0.01,meteohub,2013-04-20 23:52:00,
2013-04-20 19:57:00,44.4,24.4,30.30,NNE,23,0.0,4.0,45,0.00,,,0.01,meteohub,2013-04-20 23:57:00,
2013-04-20 20:02:00,44.1,24.1,30.30,NNW,340,0.0,4.0,45,0.00,,,0.01,meteohub,2013-04-21 00:02:00,
2013-04-20 20:07:00,43.5,24.6,30.31,WNW,291,0.0,4.0,47,0.00,,,0.01,meteohub,2013-04-21 00:07:00,
2013-04-20 20:12:00,43.0,24.1,30.31,WNW,288,0.0,4.0,47,0.00,,,0.01,meteohub,2013-04-21 00:12:00,
2013-04-20 20:17:00,42.6,24.8,30.31,West,267,0.0,4.0,49,0.00,,,0.01,meteohub,2013-04-21 00:17:00,
2013-04-20 20:22:00,42.1,24.8,30.32,NNW,338,0.0,3.0,50,0.00,,,0.01,meteohub,2013-04-21 00:22:00,
2013-04-20 20:27:00,41.7,23.5,30.32,NNW,330,0.0,2.0,48,0.00,,,0.01,meteohub,2013-04-21 00:27:00,
2013-04-20 20:32:00,41.5,24.3,30.32,WNW,298,0.0,2.0,50,0.00,,,0.01,meteohub,2013-04-21 00:32:00,
2013-04-20 20:37:00,41.4,23.7,30.33,NNW,327,0.0,2.0,49,0.00,,,0.01,meteohub,2013-04-21 00:37:00,
2013-04-20 20:42:00,41.0,24.3,30.33,NNW,341,0.0,2.0,51,0.00,,,0.01,meteohub,2013-04-21 00:42:00,
2013-04-20 20:47:00,40.6,23.5,30.34,North,359,0.0,2.0,50,0.00,,,0.01,meteohub,2013-04-21 00:47:00,
2013-04-20 20:52:00,40.5,23.7,30.34,NW,322,0.0,2.0,51,0.00,,,0.01,meteohub,2013-04-21 00:52:00,
2013-04-20 20:57:00,40.3,24.1,30.34,NNE,25,0.0,2.0,52,0.00,,,0.01,meteohub,2013-04-21 00:57:00,
2013-04-20 21:02:00,40.3,24.1,30.34,NNE,24,0.0,2.0,52,0.00,,,0.01,meteohub,2013-04-21 01:02:00,
2013-04-20 21:07:00,39.9,23.2,30.35,NNE,25,0.0,2.0,51,0.00,,,0.01,meteohub,2013-04-21 01:07:00,
2013-04-20 21:12:00,39.7,23.5,30.35,North,356,0.0,1.0,52,0.00,,,0.01,meteohub,2013-04-21 01:12:00,
2013-04-20 21:17:00,39.6,23.4,30.35,North,357,0.0,2.0,52,0.00,,,0.01,meteohub,2013-04-21 01:17:00,
2013-04-20 21:22:00,39.4,23.2,30.35,East,82,0.0,3.0,52,0.00,,,0.01,meteohub,2013-04-21 01:22:00,
2013-04-20 21:27:00,39.0,22.8,30.36,NE,36,0.0,3.0,52,0.00,,,0.01,meteohub,2013-04-21 01:27:00,
2013-04-20 21:32:00,38.8,23.2,30.36,NE,37,0.0,3.0,53,0.00,,,0.01,meteohub,2013-04-21 01:32:00,
2013-04-20 21:37:00,38.7,23.9,30.36,NE,37,0.0,1.0,55,0.00,,,0.01,meteohub,2013-04-21 01:37:00,
2013-04-20 21:42:00,38.1,24.6,30.37,NE,37,0.0,0.0,58,0.00,,,0.01,meteohub,2013-04-21 01:42:00,
2013-04-20 21:47:00,37.6,24.6,30.37,NE,37,0.0,0.0,59,0.00,,,0.01,meteohub,2013-04-21 01:47:00,
2013-04-20 21:52:00,37.2,23.7,30.37,NE,37,0.0,0.0,58,0.00,,,0.01,meteohub,2013-04-21 01:52:00,
2013-04-20 21:57:00,37.0,24.1,30.38,NE,37,0.0,0.0,59,0.00,,,0.01,meteohub,2013-04-21 01:57:00,
2013-04-20 22:02:00,36.7,24.4,30.38,NE,37,0.0,0.0,61,0.00,,,0.01,meteohub,2013-04-21 02:02:00,
2013-04-20 22:07:00,36.3,25.0,30.38,NE,37,0.0,0.0,63,0.00,,,0.01,meteohub,2013-04-21 02:07:00,
2013-04-20 22:12:00,36.0,25.3,30.38,NE,37,0.0,0.0,65,0.00,,,0.01,meteohub,2013-04-21 02:12:00,
2013-04-20 22:17:00,35.8,24.4,30.38,ESE,106,1.0,0.0,63,0.00,,,0.01,meteohub,2013-04-21 02:17:00,
2013-04-20 22:22:00,35.6,25.0,30.39,ESE,105,0.0,1.0,65,0.00,,,0.01,meteohub,2013-04-21 02:22:00,
2013-04-20 22:27:00,35.2,25.0,30.39,ESE,108,0.0,1.0,66,0.00,,,0.01,meteohub,2013-04-21 02:27:00,
2013-04-20 22:32:00,34.9,25.0,30.39,ESE,108,0.0,1.0,67,0.00,,,0.01,meteohub,2013-04-21 02:32:00,
2013-04-20 22:37:00,34.7,25.2,30.39,ENE,72,0.0,1.0,68,0.00,,,0.01,meteohub,2013-04-21 02:37:00,
2013-04-20 22:42:00,34.5,25.3,30.40,East,90,0.0,1.0,69,0.00,,,0.01,meteohub,2013-04-21 02:42:00,
2013-04-20 22:47:00,34.3,25.5,30.40,East,92,0.0,1.0,70,0.00,,,0.01,meteohub,2013-04-21 02:47:00,
2013-04-20 22:52:00,34.0,24.8,30.40,East,99,0.0,1.0,69,0.00,,,0.01,meteohub,2013-04-21 02:52:00,
2013-04-20 22:57:00,33.8,25.3,30.40,East,101,0.0,1.0,71,0.00,,,0.01,meteohub,2013-04-21 02:57:00,
2013-04-20 23:03:00,33.4,25.0,30.40,East,101,0.0,1.0,71,0.00,,,0.01,meteohub,2013-04-21 03:03:00,
2013-04-20 23:08:00,33.1,24.6,30.40,East,101,0.0,1.0,71,0.00,,,0.01,meteohub,2013-04-21 03:08:00,
2013-04-20 23:13:00,32.9,24.8,30.40,ESE,107,0.0,0.0,72,0.00,,,0.01,meteohub,2013-04-21 03:13:00,
2013-04-20 23:18:00,32.7,25.0,30.41,ESE,107,0.0,1.0,73,0.00,,,0.01,meteohub,2013-04-21 03:18:00,
2013-04-20 23:23:00,32.5,25.2,30.41,ESE,108,0.0,1.0,74,0.00,,,0.01,meteohub,2013-04-21 03:23:00,
2013-04-20 23:28:00,32.5,24.8,30.41,ESE,108,0.0,1.0,73,0.00,,,0.01,meteohub,2013-04-21 03:28:00,
2013-04-20 23:33:00,32.5,25.5,30.41,ESE,107,0.0,1.0,75,0.00,,,0.01,meteohub,2013-04-21 03:33:00,
2013-04-20 23:38:00,32.4,25.3,30.42,ESE,108,0.0,1.0,75,0.00,,,0.01,meteohub,2013-04-21 03:38:00,
2013-04-20 23:43:00,32.2,25.2,30.41,ESE,108,0.0,1.0,75,0.00,,,0.01,meteohub,2013-04-21 03:43:00,
2013-04-20 23:48:00,31.8,25.2,30.42,ESE,108,0.0,0.0,76,0.00,,,0.01,meteohub,2013-04-21 03:48:00,
2013-04-20 23:53:00,31.6,25.3,30.42,ESE,107,0.0,0.0,77,0.00,,,0.01,meteohub,2013-04-21 03:53:00,
2013-04-20 23:58:00,31.5,25.2,30.42,ESE,108,0.0,0.0,77,0.00,,,0.01,meteohub,2013-04-21 03:58:00,